User: anonymous   Login
Location: Penticton
(49.5000°N, 119.5830°W)
Time: 01:50:17
(UTC-07:00)
Language:

NOSS 3-4 (A) - Orbit

View from above orbital plane
View from above orbital plane
View from above satellite
View from above satellite

Ground track
Ground track

The orbit data is extracted from the following two-line orbital elements,

1 31701U 07027A   16257.75008434 0.00000000  00000-0  00000-0 0    03
2 31701  63.4039  68.0777 0167000  26.0013 333.9987 13.40713628    07
Epoch (UTC): 13 September 2016 18:00:07
Eccentricity: 0.0167000
inclination: 63.4039°
perigee height: 981 km
apogee height: 1231 km
right ascension of ascending node: 68.0777°
argument of perigee: 26.0013°
revolutions per day: 13.40713628
mean anomaly at epoch: 333.9987°
orbit number at epoch: 0

The dashed part of the orbit path shows where the satellite is in the earth's shadow,  

DLR